Location: Caltech
(34.1382°N, 118.1253°W)
Time: 18:17:06
(UTC-07:00)

Cosmos 2084 - Visible Passes

Search period start: 20 October 2017 00:00
Search period end: 30 October 2017 00:00
Orbit: 496 x 689 km, 62.8° (Epoch: 20 October)

Date Brightness Start Highest point End Pass type
(mag) Time Alt. Az. Time Alt. Az. Time Alt. Az.
20 Oct 6.1 20:35:33 10° NNW 20:35:49 12° NNW 20:35:49 12° NNW visible
21 Oct 5.1 19:06:31 10° NNE 19:08:15 13° NE 19:08:15 13° NE visible
21 Oct 6.1 20:44:22 10° NW 20:44:52 13° NW 20:44:52 13° NW visible
22 Oct 4.4 19:14:12 10° N 19:17:19 23° NE 19:17:29 23° NE visible
22 Oct 6.3 20:53:36 10° WNW 20:54:07 13° WNW 20:54:07 13° WNW visible
23 Oct 3.5 19:22:28 10° NNW 19:26:08 43° NE 19:26:59 37° E visible
24 Oct 3.1 19:31:02 10° NNW 19:34:52 89° SW 19:36:50 28° SSE visible
25 Oct 4.4 19:39:54 10° NW 19:43:32 42° WSW 19:47:16 10° S visible
26 Oct 5.8 19:49:12 10° WNW 19:52:09 21° WSW 19:55:10 10° SSW visible
27 Oct 6.6 19:59:58 10° W 20:00:41 10° WSW 20:01:25 10° WSW visible
28 Oct 3.3 18:26:31 10° NNW 18:30:20 80° WSW 18:34:18 10° SSE visible
29 Oct 4.9 18:35:26 10° NW 18:39:00 37° WSW 18:42:41 10° S visible
